Weather in Gyda

Russia / Yamalo-Nenets Autonomous Okrug     70°53′36″N   78°29′06″E
temp.,
°C
wind,
m/s
gust,
m/s
humid.,
%
clouds,
%
prec.,
mm/h
press.,
hPa
HPBL,
m
9 march, tue
tue923:00−34nnw0110073 0.0 100219
02:00−32n2210097 0.0 100119
05:00−30n2310097 0.1 100039
08:00−28n359898 0.1 999253
11:00−27nnw349698 0.1 999306
14:00−27nnw4597100 0.1 1000294
17:00−29wnw2299100 0.1 100120
20:00−27wsw349899 0.1 100174
10 march, wed
wed1023:00−26w239898 0.1 100226
02:00−28nw229999 0.1 100319
05:00−30wnw2310099 0.1 100419
08:00−31wnw22100100 0.0 100519
11:00−30w339999 0.1 100643
14:00−30w349765 0.0 100847
17:00−32w349963 0.0 100825
20:00−34wsw449726 0.0 100935
11 march, thu
thu1123:00−35wsw559829 0.0 100964
02:00−35wsw579960 0.0 100987
05:00−35sw589966 0.0 1008100
08:00−32sw6109790 0.0 1007185
11:00−29sw6119595 0.0 1006257
14:00−29sw6119594 0.0 1005258
17:00−30ssw7129578 0.0 1003227
20:00−30ssw8139224 0.0 1001230
12 march, fri
fri1223:00−29ssw10199012 0.0 997327
02:00−28ssw12208732 0.0 992455
05:00−26ssw13219567 0.1 987578
08:00−23ssw142197100 0.9 982672
11:00−20ssw142196100 2.5 978756
14:00−14sw121791100 0.6 978921
17:00−17nw71094100 1.1 979400
20:00−25nw6996100 0.1 982209
13 march, sat
sat1323:00−31nw5510086 0.1 98479
02:00−31wnw5899100 0.0 986165
05:00−31wnw4799100 0.0 988129
08:00−31wnw4510097 0.0 99055
11:00−29w359672 0.0 991125
14:00−28w359693 0.0 99390
17:00−30wnw2310090 0.0 99619
20:00−32nnw1210095 0.0 99819